User: anonymous   Login
Location: Arbon
(43.0005°N, 0.7472°E)
Time: 20:47:43
(UTC+00:00)
Language:

Tiros 1 despin weight - Orbit

View from above orbital plane
View from above orbital plane
View from above satellite
View from above satellite

Ground track
Ground track

The orbit data is extracted from the following two-line orbital elements,

1 00115U 60002D   21209.81321482  .00000054  00000-0  33264-4 0  9999
2 00115  48.1667 119.9047 0034844 241.0904 118.6512 14.83800081252157
Epoch (UTC): 28 July 2021 19:31:01
Eccentricity: 0.0034844
inclination: 48.1667°
perigee height: 593 km
apogee height: 642 km
right ascension of ascending node: 119.9047°
argument of perigee: 241.0904°
revolutions per day: 14.83800081
mean anomaly at epoch: 118.6512°
orbit number at epoch: 25215

The dashed part of the orbit path shows where the satellite is in the earth's shadow,  

DLR